Regional Weather Roundup
Issued by NWS Cleveland, OH

Home | Current Version | Previous Version | Text Only | Print | Product List | Glossary Off
Versions: 1 2 3 4 5 6 7 8 9 10 11 12 13 14 15 16 17 18 19 20 21 22 23 24 25 26 27 28 29 30 31 32 33 34 35 36 37 38 39 40 41 42 43 44 45 46 47 48 49 50

000
ASUS41 KCLE 052010
RWRCLE
OHIO REGIONAL WEATHER ROUNDUP
NATIONAL WEATHER SERVICE WILMINGTON, OH
300 PM EST THU MAR 05 2015

NOTE: "FAIR" INDICATES FEW OR NO CLOUDS BELOW 12,000 FEET WITH NO
SIGNIFICANT WEATHER AND/OR OBSTRUCTIONS TO VISIBILITY.

OHZ001>008-015>018-024>027-034-035-043-044-052100-
   NORTHWEST OHIO

CITY           SKY/WX    TMP DP  RH WIND       PRES   REMARKS
DEFIANCE       CLOUDY    20   4  50 W9        30.41S WCI   9
FINDLAY        PTSUNNY   19   4  51 W13       30.39R WCI   6
TOLEDO EXPRESS MOSUNNY   17   4  56 NW9G18    30.40S WCI   6
TOLEDO EXEC    CLOUDY    17   5  59 CALM      30.41R
LIMA           PTSUNNY   19   5  54 NW14      30.38R WCI   6
$$

OHZ009>014-019>023-028>033-038-089-052100-
   NORTHEAST OHIO

CITY           SKY/WX    TMP DP  RH WIND       PRES   REMARKS
CLE-HOPKINS    PTSUNNY   14   2  58 NW9       30.40R WCI   2
CLE-LAKEFRONT  SUNNY     14   2  58 NW8       30.39R WCI   3
CUY CO. ARPT   PTSUNNY   16   3  57 N14       30.37R WCI   1
LORAIN-ELYRIA  MOSUNNY   14   2  58 NW13      30.38R WCI   0
ASHTABULA      MOSUNNY   11  -2  56 N10G17    30.34S WCI  -3
AKRON-CANTON   PTSUNNY   17  -1  45 N9        30.30R WCI   6
WOOSTER        MOSUNNY   16   2  54 NW12      30.33  WCI   3
MANSFIELD      CLOUDY    14   3  61 NW13      30.32R WCI   0
YOUNGSTOWN     PTSUNNY   14  -1  51 N13       30.29S WCI   0
$$

OHZ042-051>053-060>062-070>072-077>081-052100-
  SOUTHWEST OHIO

CITY           SKY/WX    TMP DP  RH WIND       PRES   REMARKS
CINC-COVINGTON PTSUNNY   24   7  48 NW14      30.37S WCI  12
CINC-LUNKEN    MOSUNNY   24   6  46 N8        30.41S WCI  15
HAMILTON       SUNNY     24   6  46 N10       30.40S WCI  14
DAYTON         PTSUNNY   21   6  52 NW17      30.38  WCI   7
WRIGHT-PAT AFB PTSUNNY   22   4  47 NW13G18   30.37R WCI   9
DAYTON GENERAL SUNNY     21   4  47 NW14      30.36R WCI   8
WILMINGTON     PTSUNNY   20   3  48 NW15      30.34R WCI   6
$$

OHZ036-037-039>041-045>050-054>059-063>069-073>076-082>088-052100-
  CENTRAL AND SOUTHEAST OHIO

CITY           SKY/WX    TMP DP  RH WIND       PRES   REMARKS
COLUMBUS       CLOUDY    20   7  57 NW13      30.35R WCI   7
OSU AIRPORT    MOSUNNY   19   6  57 N13       30.35R WCI   6
BOLTON FIELD   CLOUDY    19   7  58 NW14      30.36R WCI   6
RICKENBACK AFB MOSUNNY   21   6  53 NW9       30.34R WCI  10
NEWARK         CLOUDY    20   5  52 NW8       30.32S WCI  10
MARION         LGT SNOW  17   8  67 N10       30.36R WCI   5
LANCASTER      CLOUDY    21   7  54 N7        30.33S WCI  12
ZANESVILLE     CLOUDY    19   3  49 N9        30.31R WCI   8
NEW PHILLY     PTSUNNY   20   2  45 NW12      30.32R WCI   8
$$


USA.gov is the U.S. government's official web portal to all federal, state and local government web resources and services.